FW6260 Weather Reports


Display with metric or nautical units.
time (UTC)temp
F
wind
direction
speed
MPH
gust
MPH
rain 1hr
in
rain 24hr
in
rain mn
in
humidity
%
barometer
mb
20260905173055 69 175 1.0 6.0 0.00 0.20 0.20 53
20260905170025 71 227 2.0 8.0 0.00 0.20 0.20 51
20260905163116 72 251 3.0 10.0 0.00 0.20 0.20 49
20260905160046 73 264 3.0 11.0 0.00 0.20 0.20 50
20260905153056 74 234 3.0 11.0 0.00 0.20 0.20 48
20260905150047 74 248 3.0 13.0 0.00 0.20 0.20 49
20260905143058 73 256 4.0 16.0 0.00 0.20 0.20 49
20260905140028 73 220 4.0 17.0 0.00 0.20 0.20 51
20260905133059 74 246 4.0 15.0 0.00 0.20 0.20 52
20260905130049 73 263 3.0 13.0 0.00 0.20 0.20 58
20260905123120 72 282 4.0 13.0 0.00 0.20 0.20 61
20260905120030 73 184 2.0 9.0 0.00 0.20 0.20 61
20260905113101 71 238 3.0 17.0 0.00 0.20 0.20 65
20260905110031 70 249 3.0 10.0 0.00 0.20 0.20 69
20260905103101 68 190 2.0 10.0 0.00 0.20 0.20 73
20260905100031 67 221 2.0 8.0 0.00 0.20 0.20 75
20260905093102 67 221 2.0 7.0 0.00 0.20 0.20 76
20260905090032 64 135 0.0 3.0 0.00 0.20 0.20 82
20260905083102 63 199 1.0 6.0 0.00 0.20 0.20 82
20260905080034 64 152 1.0 4.0 0.00 0.20 0.20 82
20260905073104 62 152 0.0 4.0 0.00 0.20 0.20 87
20260905070054 60 130 0.0 2.0 0.00 0.20 0.20 93
20260905063105 58 130 0.0 2.0 0.00 0.20 0.20 96
20260905060056 57 106 0.0 2.0 0.00 0.20 0.20 97
20260905053106 57 144 0.0 3.0 0.00 0.20 0.20 96
20260905050037 57 144 0.0 2.0 0.03 0.20 0.20 96
20260905043107 57 147 0.0 3.0 0.08 0.20 0.20 97
20260905040057 57 152 0.0 1.0 0.15 0.17 0.17 96
20260905033108 57 173 1.0 4.0 0.10 0.12 0.12 95
20260905030039 57 159 1.0 3.0 0.02 0.02 0.02 92
20260905023109 60 258 3.0 9.0 0.02 0.02 0.02 81
20260905020039 63 287 2.0 10.0 0.00 0.00 0.00 69
20260905013110 65 253 3.0 13.0 0.00 0.00 0.00 62
20260905010040 66 274 2.0 8.0 0.00 0.00 0.00 61
20260905003111 66 186 1.0 8.0 0.00 0.00 0.00 66
20260905000041 68 282 3.0 11.0 0.00 0.00 0.00 67
20260904233111 72 258 3.0 14.0 0.00 0.00 0.00 65
20260904230041 72 171 1.0 3.0 0.00 0.00 0.00 67
20260904223112 70 0.0 0.0 0.00 0.00 0.00 70
20260904220042 71 0.0 0.0 0.00 0.00 0.00 69
20260904213112 71 143 0.0 2.0 0.00 0.00 0.00 67
20260904210043 73 169 0.0 2.0 0.00 0.00 0.00 65
20260904203113 74 163 0.0 4.0 0.00 0.00 0.00 62
20260904200043 72 0.0 0.0 0.00 0.00 0.00 65
20260904193114 75 0.0 0.0 0.00 0.00 0.00 61
20260904190043 74 143 0.0 1.0 0.00 0.00 0.00 61
20260904183114 77 201 0.0 7.0 0.00 0.00 0.00 56
20260904180044 80 211 2.0 10.0 0.00 0.00 0.00 50